Waarnemingen

Advertentie
Mijn weer
Plymouth, Groot Brittannië (3827): temperatuur & dauwpunt: 31.05.2020 01:00:00 - 06.06.2020 01:00:00 (BST)Plymouth, Groot Brittannië (3827): luchtdruk: 31.05.2020 01:00:00 - 06.06.2020 01:00:00 (BST)Plymouth, Groot Brittannië (3827): zicht: 31.05.2020 01:00:00 - 06.06.2020 01:00:00 (BST)Plymouth, Groot Brittannië (3827): neerslag: 31.05.2020 01:00:00 - 06.06.2020 01:00:00 (BST)
Datum & Tijd tt [°C] td [°C] ppp [hPa] vv [km] rr [mm]
06.06.2020 01:00:00 8,6 7,3 1004,0 26 0,0
06.06.2020 00:00:00 9,5 7,7 1003,4 26 0,0
05.06.2020 23:00:00 9,1 7,5 1003,1 26 0,0
05.06.2020 22:00:00 8,6 6,9 1002,8 8 1,6
05.06.2020 21:00:00 12,8 7,7 1002,0 28 0,0
05.06.2020 20:00:00 13,6 6,0 1002,0 29 0,0
05.06.2020 19:00:00 15,6 5,4 1001,8 26 0,0
05.06.2020 18:00:00 14,0 5,6 1001,8 28 0,0
05.06.2020 17:00:00 14,3 6,5 1002,0 25 0,0
05.06.2020 16:00:00 16,3 6,5 1001,9 27 0,0
05.06.2020 15:00:00 15,7 5,5 1002,1 28 0,0
05.06.2020 14:00:00 15,2 6,7 1002,1 25 0,0
05.06.2020 13:00:00 15,4 7,0 1001,9 26 0,0
05.06.2020 12:00:00 15,4 8,0 1001,9 24 0,0
05.06.2020 11:00:00 13,1 5,9 1001,9 22 0,0
05.06.2020 10:00:00 13,3 7,3 1001,8 25 0,0
05.06.2020 09:00:00 12,9 7,2 1001,8 27 0,0
05.06.2020 08:00:00 12,7 7,9 1001,4 28 0,0
05.06.2020 07:00:00 12,2 8,6 1001,3 27 0,0
05.06.2020 06:00:00 11,9 8,1 1001,2 26 0,0
05.06.2020 05:00:00 12,1 8,8 1001,3 26 0,0
05.06.2020 04:00:00 12,5 11,2 1001,3 22 0,0
05.06.2020 03:00:00 12,5 11,7 1001,6 17 0,0
05.06.2020 02:00:00 12,5 12,0 1002,0 20 0,2
05.06.2020 01:00:00 12,4 12,0 1002,3 17 0,0
05.06.2020 00:00:00 12,3 12,0 1002,9 25 0,0
04.06.2020 23:00:00 12,1 11,7 1003,4 12 0,2
04.06.2020 22:00:00 11,6 11,0 1004,0 18 0,0
04.06.2020 21:00:00 11,5 10,8 1004,6 20 0,0
04.06.2020 20:00:00 12,1 9,8 1004,9 9 0,0
04.06.2020 19:00:00 12,9 8,2 1005,3 29 0,0
04.06.2020 18:00:00 13,0 8,0 1005,6 29 0,0
04.06.2020 17:00:00 14,0 7,2 1005,7 30 0,0
04.06.2020 16:00:00 14,7 6,7 1006,2 30 0,0
04.06.2020 15:00:00 15,2 5,6 1006,5 28 0,0
04.06.2020 14:00:00 14,7 6,4 1006,6 25 0,0
04.06.2020 13:00:00 16,6 7,9 1006,8 27 0,0
04.06.2020 12:00:00 14,3 7,3 1007,2 28 0,0
04.06.2020 11:00:00 13,5 7,6 1007,4 27 0,0
04.06.2020 10:00:00 12,5 8,2 1007,5 23 0,0
04.06.2020 09:00:00 12,6 8,6 1007,7 28 0,0
04.06.2020 08:00:00 11,6 7,3 1008,0 26 0,0
04.06.2020 07:00:00 10,2 7,9 1007,9 21 0,0
04.06.2020 06:00:00 9,3 6,8 1007,9 24 0,0
04.06.2020 05:00:00 10,3 6,5 1007,7 27 0,0
04.06.2020 04:00:00 11,2 7,6 1007,7 25 0,0
04.06.2020 03:00:00 11,6 9,1 1007,9 27 0,0
04.06.2020 02:00:00 11,8 9,6 1008,4 29 0,0
04.06.2020 01:00:00 12,2 10,4 1008,6 21 0,0
04.06.2020 00:00:00 12,6 11,1 1008,4 20 0,0
03.06.2020 23:00:00 13,2 11,5 1008,3 23 0,0
03.06.2020 22:00:00 13,4 12,2 1008,0 15 0,0
03.06.2020 21:00:00 13,8 12,8 1007,6 14 0,0
03.06.2020 20:00:00 14,3 13,6 1007,4 13 0,2
03.06.2020 19:00:00 14,4 13,6 1007,2 7 0,6
03.06.2020 18:00:00 14,3 13,7 1007,2 5 1,2
03.06.2020 17:00:00 14,2 13,5 1007,4 4,1 1,4
03.06.2020 16:00:00 13,9 13,1 1007,7 2,0 3,4
03.06.2020 15:00:00 14,7 12,4 1007,8 6 0,0
03.06.2020 14:00:00 16,8 12,2 1007,8 25 0,0
03.06.2020 13:00:00 16,8 12,0 1007,9 22 0,0
03.06.2020 12:00:00 17,7 13,5 1008,4 19 0,2
03.06.2020 11:00:00 16,6 13,6 1008,7 14 0,0
03.06.2020 10:00:00 15,8 13,4 1009,1 17 0,0
03.06.2020 09:00:00 14,7 13,4 1009,6 15 0,0
03.06.2020 08:00:00 14,5 12,7 1010,0 12 0,4
03.06.2020 07:00:00 15,5 11,8 1010,1 23 0,0
03.06.2020 06:00:00 14,8 11,1 1010,4 23 0,0
03.06.2020 05:00:00 14,8 10,2 1011,0 23 0,0
03.06.2020 04:00:00 14,7 10,1 1011,8 24 0,0
03.06.2020 03:00:00 15,2 10,7 1012,7 13 0,0
03.06.2020 02:00:00 15,7 11,1 1013,5 22 0,0
03.06.2020 01:00:00 16,3 10,1 1014,4 24 0,0
03.06.2020 00:00:00 17,1 9,5 1015,2 26 0,0
02.06.2020 23:00:00 16,6 9,0 1015,6 25 0,0
02.06.2020 22:00:00 18,5 9,1 1016,1 27 0,0
02.06.2020 21:00:00 19,7 8,6 1016,1 28 0,0
02.06.2020 20:00:00 20,8 11,6 1016,3 24 0,0
02.06.2020 19:00:00 19,4 12,4 1016,7 25 0,0
02.06.2020 18:00:00 20,5 11,8 1017,2 25 0,0
02.06.2020 17:00:00 21,0 12,2 1017,8 25 0,0
02.06.2020 16:00:00 21,6 14,2 1018,6 27 0,0
02.06.2020 15:00:00 21,9 11,9 1019,1 28 0,0
02.06.2020 14:00:00 22,5 12,7 1019,6 25 0,0
02.06.2020 13:00:00 22,3 12,4 1020,0 24 0,0
02.06.2020 12:00:00 22,7 11,4 1020,4 25 0,0
02.06.2020 11:00:00 21,4 11,6 1020,8 28 0,0
02.06.2020 10:00:00 22,5 11,5 1020,7 26 -
02.06.2020 09:00:00 19,1 11,6 1020,9 25 -
02.06.2020 08:00:00 16,0 11,7 1021,0 25 0,0
02.06.2020 07:00:00 12,7 10,8 1021,2 24 0,0
02.06.2020 06:00:00 11,7 10,5 1021,2 22 0,0
02.06.2020 05:00:00 11,6 9,9 1021,0 22 0,0
02.06.2020 04:00:00 12,1 10,3 1021,1 24 0,0
02.06.2020 03:00:00 12,5 10,3 1021,4 23 0,0
02.06.2020 02:00:00 13,1 9,9 1021,7 25 0,0
02.06.2020 01:00:00 12,8 10,3 1022,0 23 0,0
02.06.2020 00:00:00 13,6 9,8 1022,2 23 0,0
01.06.2020 23:00:00 14,3 9,7 1022,2 24 0,0
01.06.2020 22:00:00 15,1 9,6 1022,2 25 0,0
01.06.2020 21:00:00 17,2 9,1 1021,5 28 0,0
01.06.2020 20:00:00 18,9 10,2 1021,2 26 0,0
01.06.2020 19:00:00 19,7 10,6 1021,1 28 0,0
01.06.2020 18:00:00 20,5 10,2 1021,1 28 0,0
01.06.2020 17:00:00 24,2 8,1 1020,8 28 0,0
01.06.2020 16:00:00 24,6 7,2 1021,2 30 0,0
01.06.2020 15:00:00 24,1 7,0 1021,5 26 0,0
01.06.2020 14:00:00 23,6 8,4 1021,8 26 0,0
01.06.2020 13:00:00 23,5 5,4 1021,9 30 0,0
01.06.2020 12:00:00 23,3 7,3 1021,9 28 0,0
01.06.2020 11:00:00 21,6 8,1 1021,9 30 0,0
01.06.2020 10:00:00 20,2 8,3 1021,7 26 0,0
01.06.2020 09:00:00 18,5 7,9 1021,7 28 0,0
01.06.2020 08:00:00 16,9 7,5 1021,6 28 0,0
01.06.2020 07:00:00 15,0 7,2 1021,5 29 0,0
01.06.2020 06:00:00 13,2 6,3 1021,3 29 0,0
01.06.2020 05:00:00 12,5 6,3 1021,1 29 0,0
01.06.2020 04:00:00 12,7 6,9 1021,4 28 0,0
01.06.2020 03:00:00 12,4 8,1 1021,5 25 0,0
01.06.2020 02:00:00 12,4 8,5 1021,9 23 0,0
01.06.2020 01:00:00 13,1 8,1 1021,8 25 0,0
01.06.2020 00:00:00 13,9 7,9 1021,6 25 0,0
31.05.2020 23:00:00 14,7 7,3 1021,7 25 0,0
31.05.2020 22:00:00 16,0 6,8 1021,3 26 0,0
31.05.2020 21:00:00 18,4 5,3 1020,6 29 0,0
31.05.2020 20:00:00 19,9 4,3 1020,1 30 0,0
31.05.2020 19:00:00 21,0 4,7 1019,7 29 0,0
31.05.2020 18:00:00 21,5 5,5 1019,7 30 0,0
31.05.2020 17:00:00 22,4 4,9 1019,7 26 0,0
31.05.2020 16:00:00 23,8 6,2 1019,6 28 0,0
31.05.2020 15:00:00 23,7 6,2 1019,5 26 0,0
31.05.2020 14:00:00 22,7 8,1 1019,5 28 0,0
31.05.2020 13:00:00 22,3 8,9 1019,8 27 0,0
31.05.2020 12:00:00 21,3 9,0 1019,9 21 0,0
31.05.2020 11:00:00 21,1 9,7 1019,9 22 0,0
31.05.2020 10:00:00 19,9 9,7 1019,6 22 0,0
31.05.2020 09:00:00 18,6 9,1 1019,5 23 0,0
31.05.2020 08:00:00 17,3 8,4 1019,1 22 0,0
31.05.2020 07:00:00 15,6 8,1 1019,0 23 0,0
31.05.2020 06:00:00 14,8 7,4 1018,7 23 0,0
31.05.2020 05:00:00 14,7 7,0 1018,7 24 0,0
31.05.2020 04:00:00 15,1 7,1 1018,8 24 0,0
31.05.2020 03:00:00 14,5 8,4 1019,1 22 0,0
31.05.2020 02:00:00 14,2 8,1 1019,6 22 0,0
31.05.2020 01:00:00 14,5 7,3 1019,9 22 0,0

tt = temperatuur
td = dauwpunt
ppp = luchtdruk
vv = zicht
rr = neerslag

Weerstations in de omgeving